Location: Buckeye Ditch
(40.9104°N, 122.9517°W)
Time: 15:27:36
(UTC+00:00)

A-11 Canister half - Pass Details

Date: 22 May 2025
Orbit: 1515 x 1684 km, 47.2° (Epoch: 14 June)

Event Time Altitude Azimuth Distance (km) Brightness Sun altitude
Rises 04:59:53 0° 195° (SSW) 4,827 11.3 -14.6°
Reaches altitude 10° 05:03:37 10° 184° (S) 3,817 10.7 -15.1°
Maximum altitude 05:11:20 28° 130° (SE) 2,629 9.6 -16.2°
Drops below altitude 10° 05:18:51 10° 76° (ENE) 3,725 10.7 -17.1°
Sets 05:22:25 0° 66° (ENE) 4,692 11.4 -17.5°
